| time (UTC) | temp F | wind direction | speed knots | gust knots | rain 1hr in | rain 24hr in | rain mn in | humidity % | barometer mb |
| 20260902091515 | 77 | 240 | 0.9 | 6.1 | 0.00 | 0.00 | 0.00 | 70 | 1021.4 |
| 20260902090021 | 77 | 271 | 1.7 | 5.2 | 0.00 | 0.00 | 0.00 | 69 | 1021.4 |
| 20260902084602 | 77 | 274 | 2.6 | 6.1 | 0.00 | 0.00 | 0.00 | 67 | 1021.3 |
| 20260902083013 | 77 | 265 | 0.0 | 3.5 | 0.00 | 0.00 | 0.00 | 69 | 1021.2 |
| 20260902081550 | 76 | 261 | 0.9 | 2.6 | 0.00 | 0.00 | 0.00 | 70 | 1021.2 |
| 20260902080006 | 75 | 267 | 0.0 | 2.6 | 0.00 | 0.00 | 0.00 | 71 | 1021.1 |
| 20260902074523 | 75 | 280 | 0.9 | 6.1 | 0.00 | 0.00 | 0.00 | 74 | 1020.9 |
| 20260902073008 | 73 | 350 | 0.0 | 1.7 | 0.00 | 0.00 | 0.00 | 76 | 1021.1 |
| 20260902071538 | 73 | 359 | 0.0 | 1.7 | 0.00 | 0.00 | 0.00 | 77 | 1020.8 |
| 20260902070025 | 72 | 241 | 0.9 | 2.6 | 0.00 | 0.00 | 0.00 | 79 | 1020.9 |
| 20260902064550 | 72 | 350 | 0.9 | 6.1 | 0.00 | 0.00 | 0.00 | 79 | 1020.8 |
| 20260902063104 | 71 | 330 | 0.9 | 3.5 | 0.00 | 0.00 | 0.00 | 80 | 1020.6 |
| 20260902061548 | 71 | 333 | 0.9 | 2.6 | 0.00 | 0.00 | 0.00 | 81 | 1020.7 |
| 20260902060034 | 70 | 338 | 0.0 | 3.5 | 0.00 | 0.00 | 0.00 | 81 | 1020.6 |
| 20260902054530 | 70 | 300 | 0.0 | 3.5 | 0.00 | 0.00 | 0.00 | 81 | 1020.5 |
| 20260902053011 | 69 | 339 | 1.7 | 3.5 | 0.00 | 0.00 | 0.00 | 82 | 1020.3 |
| 20260902051527 | 68 | 297 | 0.0 | 0.9 | 0.00 | 0.00 | 0.00 | 83 | 1020.4 |
| 20260902050019 | 68 | 264 | 0.0 | 2.6 | 0.00 | 0.00 | 0.00 | 82 | 1020.1 |
| 20260902044532 | 69 | 273 | 0.0 | 1.7 | 0.00 | 0.00 | 0.00 | 82 | 1020.4 |
| 20260902043007 | 68 | 324 | 0.0 | 1.7 | 0.00 | 0.00 | 0.00 | 83 | 1020.3 |
| 20260902041534 | 67 | 270 | 0.0 | 3.5 | 0.00 | 0.00 | 0.00 | 83 | 1020.1 |
| 20260902040035 | 67 | 309 | 0.0 | 1.7 | 0.00 | 0.00 | 0.00 | 83 | 1020.1 |
| 20260902034526 | 67 | 337 | 0.0 | 1.7 | 0.00 | 0.00 | 0.00 | 83 | 1020.1 |
| 20260902033051 | 68 | 278 | 0.0 | 0.9 | 0.00 | 0.00 | 0.00 | 83 | 1020.1 |
| 20260902031524 | 68 | 280 | 0.0 | 1.7 | 0.00 | 0.00 | 0.00 | 83 | 1020.1 |
| 20260902030054 | 68 | 337 | 0.0 | 2.6 | 0.00 | 0.00 | 0.00 | 83 | 1020.3 |
| 20260902024538 | 68 | 276 | 0.9 | 2.6 | 0.00 | 0.00 | 0.00 | 83 | 1020.1 |
| 20260902023055 | 69 | 281 | 0.0 | 4.3 | 0.00 | 0.00 | 0.00 | 82 | 1020.0 |
| 20260902021527 | 69 | 279 | 1.7 | 2.6 | 0.00 | 0.00 | 0.00 | 82 | 1020.3 |
| 20260902020059 | 69 | 334 | 0.9 | 2.6 | 0.00 | 0.00 | 0.00 | 82 | 1020.2 |
| 20260902014520 | 69 | 344 | 0.0 | 3.5 | 0.00 | 0.00 | 0.00 | 82 | 1020.1 |
| 20260902013022 | 69 | 289 | 0.0 | 3.5 | 0.00 | 0.00 | 0.00 | 83 | 1020.1 |
| 20260902011533 | 68 | 262 | 0.0 | 2.6 | 0.00 | 0.00 | 0.00 | 83 | 1020.1 |
| 20260902010043 | 68 | 291 | 0.9 | 3.5 | 0.00 | 0.00 | 0.00 | 83 | 1020.2 |
| 20260902004600 | 69 | 291 | 0.0 | 1.7 | 0.00 | 0.00 | 0.00 | 83 | 1020.0 |
| 20260902003057 | 69 | 23 | 0.0 | 2.6 | 0.00 | 0.00 | 0.00 | 83 | 1020.2 |
| 20260902001532 | 69 | 13 | 0.0 | 0.0 | 0.00 | 0.00 | 0.00 | 82 | 1020.0 |
| 20260902000119 | 70 | 22 | 0.0 | 0.9 | 0.00 | 0.00 | 0.00 | 82 | 1020.1 |
| 20260901234539 | 70 | 348 | 0.0 | 2.6 | 0.00 | 0.00 | 0.00 | 82 | 1020.1 |
| 20260901233108 | 70 | 64 | 0.0 | 2.6 | 0.00 | 0.00 | 0.00 | 83 | 1020.1 |
| 20260901231510 | 70 | 312 | 0.0 | 1.7 | 0.00 | 0.00 | 0.00 | 82 | 1020.0 |
| 20260901230113 | 70 | 345 | 0.9 | 2.6 | 0.00 | 0.00 | 0.00 | 82 | 1020.0 |
| 20260901224506 | 71 | 288 | 0.0 | 1.7 | 0.00 | 0.00 | 0.00 | 81 | 1020.1 |
| 20260901223024 | 72 | 323 | 0.0 | 4.3 | 0.00 | 0.00 | 0.00 | 81 | 1020.0 |
| 20260901221537 | 71 | 280 | 1.7 | 4.3 | 0.00 | 0.00 | 0.00 | 83 | 1020.1 |
| 20260901220134 | 69 | 282 | 0.9 | 2.6 | 0.00 | 0.00 | 0.00 | 83 | 1020.1 |
| 20260901214517 | 69 | 296 | 0.0 | 1.7 | 0.00 | 0.00 | 0.00 | 83 | 1020.0 |
| 20260901213114 | 69 | 348 | 0.0 | 1.7 | 0.00 | 0.00 | 0.00 | 83 | 1020.1 |
| 20260901211522 | 69 | 317 | 0.0 | 0.0 | 0.00 | 0.00 | 0.00 | 82 | 1020.0 |
| 20260901210059 | 69 | 317 | 0.0 | 1.7 | 0.00 | 0.00 | 0.00 | 83 | 1020.0 |
| 20260901204541 | 69 | 294 | 0.0 | 1.7 | 0.00 | 0.00 | 0.00 | 83 | 1019.9 |
| 20260901203053 | 70 | 310 | 0.0 | 0.0 | 0.00 | 0.00 | 0.00 | 82 | 1019.8 |
| 20260901201601 | 70 | 310 | 0.0 | 1.7 | 0.00 | 0.00 | 0.00 | 82 | 1019.6 |
| 20260901200023 | 71 | 289 | 0.9 | 1.7 | 0.00 | 0.00 | 0.00 | 82 | 1019.6 |
| 20260901194513 | 71 | 325 | 0.0 | 1.7 | 0.00 | 0.00 | 0.00 | 82 | 1019.4 |
| 20260901193002 | 71 | 281 | 0.9 | 1.7 | 0.00 | 0.00 | 0.00 | 82 | 1019.4 |
| 20260901191505 | 72 | 283 | 0.0 | 1.7 | 0.00 | 0.00 | 0.00 | 82 | 1019.2 |
| 20260901190056 | 72 | 283 | 0.0 | 1.7 | 0.00 | 0.00 | 0.00 | 81 | 1019.0 |
| 20260901184534 | 73 | 284 | 0.0 | 0.0 | 0.00 | 0.00 | 0.00 | 81 | 1018.7 |
| 20260901183100 | 75 | 281 | 0.0 | 2.6 | 0.00 | 0.00 | 0.00 | 80 | 1018.6 |
| 20260901181534 | 76 | 341 | 0.0 | 0.0 | 0.00 | 0.00 | 0.00 | 77 | 1018.4 |
| 20260901180017 | 76 | 338 | 0.9 | 2.6 | 0.00 | 0.00 | 0.00 | 77 | 1018.4 |
| 20260901174547 | 77 | 335 | 0.0 | 1.7 | 0.00 | 0.00 | 0.00 | 77 | 1018.3 |
| 20260901173052 | 77 | 284 | 0.0 | 2.6 | 0.00 | 0.00 | 0.00 | 77 | 1018.1 |
| 20260901171559 | 78 | 276 | 0.0 | 1.7 | 0.00 | 0.00 | 0.00 | 75 | 1018.1 |
| 20260901170018 | 81 | 285 | 0.0 | 0.9 | 0.00 | 0.00 | 0.00 | 67 | 1017.9 |
| 20260901164545 | 83 | 285 | 0.0 | 0.0 | 0.00 | 0.00 | 0.00 | 62 | 1018.1 |
| 20260901163026 | 84 | 257 | 0.0 | 2.6 | 0.00 | 0.00 | 0.00 | 57 | 1018.1 |
| 20260901161512 | 84 | 240 | 0.9 | 1.7 | 0.00 | 0.00 | 0.00 | 58 | 1018.2 |
| 20260901160033 | 84 | 256 | 0.0 | 2.6 | 0.00 | 0.00 | 0.00 | 59 | 1018.1 |
| 20260901154602 | 84 | 243 | 0.0 | 2.6 | 0.00 | 0.00 | 0.00 | 59 | 1018.3 |
| 20260901153040 | 84 | 206 | 0.9 | 3.5 | 0.00 | 0.00 | 0.00 | 59 | 1018.3 |
| 20260901151535 | 85 | 248 | 0.9 | 3.5 | 0.00 | 0.00 | 0.00 | 56 | 1018.1 |
| 20260901150041 | 84 | 242 | 0.0 | 4.3 | 0.00 | 0.00 | 0.00 | 60 | 1018.2 |
| 20260901144523 | 85 | 198 | 0.9 | 4.3 | 0.00 | 0.00 | 0.00 | 57 | 1018.3 |
| 20260901143047 | 84 | 220 | 1.7 | 5.2 | 0.00 | 0.00 | 0.00 | 60 | 1018.4 |
| 20260901141518 | 86 | 222 | 0.9 | 5.2 | 0.00 | 0.00 | 0.00 | 56 | 1018.5 |
| 20260901134522 | 85 | 249 | 0.9 | 3.5 | 0.00 | 0.00 | 0.00 | 57 | 1018.7 |
| 20260901133054 | 84 | 118 | 0.9 | 7.0 | 0.00 | 0.00 | 0.00 | 58 | 1018.8 |
| 20260901131509 | 85 | 211 | 0.9 | 5.2 | 0.00 | 0.00 | 0.00 | 59 | 1018.9 |
| 20260901130033 | 83 | 281 | 0.0 | 6.1 | 0.00 | 0.00 | 0.00 | 60 | 1019.1 |
| 20260901124516 | 83 | 104 | 1.7 | 5.2 | 0.00 | 0.00 | 0.00 | 60 | 1019.3 |
| 20260901123058 | 83 | 233 | 0.0 | 4.3 | 0.00 | 0.00 | 0.00 | 58 | 1019.3 |
| 20260901121514 | 82 | 223 | 1.7 | 4.3 | 0.00 | 0.00 | 0.00 | 58 | 1019.5 |
| 20260901120025 | 81 | 144 | 0.9 | 3.5 | 0.00 | 0.00 | 0.00 | 60 | 1019.6 |
| 20260901114501 | 81 | 36 | 0.9 | 3.5 | 0.00 | 0.00 | 0.00 | 59 | 1019.9 |
| 20260901113049 | 81 | 78 | 0.0 | 4.3 | 0.00 | 0.00 | 0.00 | 57 | 1019.8 |
| 20260901111550 | 82 | 261 | 0.9 | 4.3 | 0.00 | 0.00 | 0.00 | 55 | 1019.9 |
| 20260901110055 | 81 | 118 | 1.7 | 5.2 | 0.00 | 0.00 | 0.00 | 55 | 1020.0 |
| 20260901104557 | 79 | 256 | 0.0 | 2.6 | 0.00 | 0.00 | 0.00 | 57 | 1020.0 |
| 20260901103026 | 79 | 294 | 3.5 | 7.0 | 0.00 | 0.00 | 0.00 | 55 | 1020.1 |
| 20260901101504 | 79 | 261 | 1.7 | 7.0 | 0.00 | 0.00 | 0.00 | 53 | 1020.3 |
| 20260901100051 | 78 | 279 | 2.6 | 6.1 | 0.00 | 0.00 | 0.00 | 54 | 1020.3 |
| 20260901094514 | 78 | 262 | 0.0 | 2.6 | 0.00 | 0.00 | 0.00 | 53 | 1020.4 |
| 20260901093101 | 77 | 86 | 0.9 | 5.2 | 0.00 | 0.00 | 0.00 | 51 | 1020.4 |